www.pogodaiklimat.ru

Погода и климат >> Архив погоды >> Россия >> Якутия >> Оленек


АРХИВ ПОГОДЫ в Оленеке

Время (UTC), дата Ветер
(напр.,м/с)
 
Видим.   Явления Облачность Т
(С)
Тd
(С)
f
(%)
Тe
(С)
Тes
(С)
Комфортность P
(гПа)
Po
(гПа)
Тmin
(С)
Tmax
(С)
R
(мм)
R24
(мм)
S
(см)
06 17.07 С 7-11
{13}
50 км 6/6 1080 м
[Cb cap]
+14.7 +6.4 57 +13 +14 1014.8 988.8
09 17.07 С 8-12
{13}
50 км 5/5 1000 м
[Cb cap]
+12.5 +5.6 63 +10 +10 1017.2 991.0
12 17.07 С 6-11
{14}
н/о н/о +11.6 +3.2 56 +9 +9 1019.1 992.8 +16.6
15 17.07 С 3
{11}
н/о н/о +9.6 +2.8 63 +8 +8 1020.5 993.9
18 17.07 С 1 н/о н/о +6.8 +2.2 72 +6 +6 1021.6 994.7
21 17.07 С 4
{10}
н/о н/о +7.5 +2.0 68 +4 +4 1022.4 995.5
00 18.07 С 5 50 км 3/0
[Ci fib]
+9.9 +2.7 61 +7 +9 1023.0 996.4 +6.7
03 18.07 С 6
{10}
50 км 9/9 660 м
[Sc]
+8.8 +2.9 66 +5 +6 1024.0 997.3
06 18.07 СВ 5
{10}
50 км 6/3 600 м
[Sc diur, vesp Ci fib]
+13.0 +2.5 49 +11 +14 1023.6 997.3
09 18.07 СВ 5
{10}
50 км 3/1 600 м
[Sc diur, vesp Ci fib]
+15.1 +2.3 42 +14 +16 1023.3 997.3
12 18.07 СВ 6
{11}
н/о н/о +14.4 +2.7 45 +13 +13 1024.6 998.3 +15.2
15 18.07 СВ 4
{10}
н/о н/о +10.8 +2.8 58 +9 +9 1025.2 998.6
18 18.07 С 5 н/о н/о +9.0 +3.1 67 +6 +6 1025.8 999.0
21 18.07 С 4 н/о н/о +9.5 +3.8 68 +7 +7 1026.2 999.5
00 19.07 С 4 50 км 6/0
[Ci sp]
+12.2 +3.8 56 +10 +13 1026.7 1000.2 +8.3
03 19.07 СВ 6-10
{10}
50 км 8/0
[Ac trans Ci sp]
+15.3 +2.3 41 +14 +16 1026.3 1000.1
06 19.07 СВ 6-10
{12}
50 км 3/3 1500 м
[Cu hum Ci fib]
+18.4 +2.5 35 +18 +20 1025.3 999.4
09 19.07 В 4
{10}
50 км 5/5 1000 м
[Cu hum]
+19.2 +3.2 35 +19 +21 1024.6 999.0
12 19.07 С 3 н/о н/о +18.0 +2.5 35 +18 +18 1025.1 999.1 +19.5
15 19.07 С 2 н/о н/о +15.1 +3.2 45 +15 +15 1025.4 999.2
18 19.07 СЗ 2 н/о н/о +10.8 +3.3 60 +10 +10 1026.2 999.6
21 19.07 СЗ 2 н/о н/о +9.9 +3.7 65 +9 +9 1026.8 1000.1
00 20.07 З 1 н/о н/о +15.2 +4.6 49 +16 +16 1026.2 1000.0 +8.4
03 20.07 З 2 н/о н/о +20.5 +2.5 30 +21 +21 комфорт 1024.5 998.8
06 20.07 З 3 н/о н/о +22.8 +1.2 24 +22 +22 комфорт 1022.4 997.0
09 20.07 СЗ 4 н/о н/о +24.1 +1.1 22 +23 +23 комфорт 1020.7 995.4
12 20.07 З 3 н/о н/о +23.3 +0.9 23 +22 +22 комфорт 1020.0 994.6 +24.3
15 20.07 З 1 н/о н/о +18.8 +2.6 34 +20 +20 1020.2 994.4
18 20.07 З 1 н/о н/о +14.7 +2.9 45 +15 +15 1020.5 994.4
21 20.07 СЗ 1 н/о н/о +13.4 +3.4 51 +14 +14 1020.8 994.5
00 21.07 З 2 н/о н/о +18.1 +5.1 42 +19 +19 1020.3 994.5 +12.6
03 21.07 З 4 н/о н/о +24.9 +3.7 25 +24 +24 комфорт 1018.7 993.5
06 21.07 СЗ 3 н/о н/о +26.8 +4.7 24 +26 +26 жарко 1017.4 992.4
09 21.07 З 1 н/о н/о +27.8 +4.4 22 +26 +26 жарко 1016.7 991.8
12 21.07 СВ 3 н/о н/о +26.5 +5.2 26 +26 +26 жарко 1016.7 991.7 +28.1
15 21.07 СВ 3 н/о н/о +21.2 +7.2 40 +22 +22 комфорт 1017.3 991.8
18 21.07 В 2 н/о н/о +18.7 +7.0 46 +20 +20 1018.1 992.4
21 21.07 ЮВ 1 н/о н/о +15.1 +7.9 62 +16 +16 1018.4 992.4
00 22.07 ЮВ 2 50 км ясно +20.8 +8.9 46 +23 +27 комфорт 1017.6 992.2 +14.8
03 22.07 Ю 2 50 км ясно +27.1 +7.0 28 +27 +36 жарко 1016.2 991.3
06 22.07 50 км 1/1 1500 м
[Cu hum]
+28.6 +10.3 32 1014.5 989.7
09 22.07 ЮЗ 2 50 км ясно +29.6 +9.2 28 +29 +34 жарко 1013.0 988.3
12 22.07 ЮВ 2 н/о н/о +28.7 +3.0 19 +27 +27 жарко 1012.1 987.4 +29.8
15 22.07 В 3 н/о н/о +23.6 +3.5 27 +23 +23 комфорт 1012.0 986.9
18 22.07 В 4 н/о н/о +17.2 +7.4 52 +17 +17 1012.4 986.7
21 22.07 В 2 н/о н/о +15.3 +7.7 60 +15 +15 1012.4 986.6
00 23.07 нст 1 50 км ясно +22.1 +7.7 40 +23 +28 комфорт 1011.4 986.2 +14.9
03 23.07 50 км ясно +28.9 +7.4 26 1009.6 985.0
06 23.07 нст 1 50 км ясно +31.7 +10.9 28 +32 +42 жарко 1008.1 983.8
09 23.07 ЮЗ 3 50 км ясно +32.4 +11.2 27 +32 +36 жарко 1007.0 982.7
12 23.07 З 2 н/о н/о +30.8 +6.1 21 +29 +29 жарко 1006.8 982.4 +32.8
15 23.07 СВ 8-11
{11}
н/о н/о +23.6 +10.1 42 +25 +25 комфорт 1007.7 982.7
18 23.07 СВ 3
{11}
н/о н/о +17.7 +11.0 65 +18 +18 1009.9 984.3
21 23.07 СВ 2 н/о н/о +15.1 +10.1 72 +15 +15 1010.8 985.0
00 24.07 СВ 3 50 км 6/0
[Ci sp]
+16.8 +8.1 56 +17 +20 1010.0 984.4 +14.8
03 24.07 В 3 50 км 8/0
[Ci sp]
+20.4 +9.5 50 +22 +28 комфорт 1008.5 983.2

 

Местоположение метеостанции Оленек (Якутия, Россия): широта 68.50 долгота 112.40 высота над уровнем моря 220 м.

В архиве по умолчанию представлена погода в Оленеке за последнюю неделю. Архивные данные за месяц целиком и за предыдущие месяцы, начиная с января 2011 года, Вы можете получить, выбрав интересующий диапазон дат из раскрывающегося списка и нажав кнопку "Ввод!".


*Определитесь, кто Вы:
робот инопланетянин человек

Внимание! Время в таблицах - всемирное. Для получения местного времени необходимо прибавить поправку, которая равна 9 ч.

Смотрите также архив погоды в соседних городах и на ближайших метеорологических станциях:

Погода в Джалинде (Якутия, Россия) (191 км)
Погода в Полярном (Якутия, Россия) (197 км)
Погода в Ярольине (Якутия, Россия) (224 км)
Погода в Сухане (Якутия, Россия) (240 км)
Погода в Шелагонцах (Якутия, Россия) (262 км)
Погода в Айхале (Якутия, Россия) (289 км)
Погода в Эйке (Якутия, Россия) (349 км)
Погода в Саскылахе (Якутия, Россия) (391 км)
Погода в Хабардино (Якутия, Россия) (434 км)
Погода в Джарджане (Якутия, Россия) (470 км)

Пояснения к столбцам:

Ветер - указаны скорость ветра в м/с - средняя за 10 мин, порывы в срок и между сроками (в фигурных скобках) и направление, откуда дует ветер: С - северный, СВ - северо-восточный, В - восточный, ЮВ - юго-восточный, Ю - южный, ЮЗ - юго-западный, З - западный, СЗ - северо-западный.
Видимость - горизонтальная дальность видимости в метрах или километрах. При видимости от 1 до 10 км при отсутствии осадков обычно наблюдается дымка, при ухудшении видимости до 1 км и менее - туман. В сухую погоду видимость может ухудшаться дымом, пылью или мглою.
Явления - указаны атмосферные явления, наблюдавшиеся в срок или в последний час перед сроком; фигурными скобками обозначены явления, наблюдавшиеся между сроками (за 1-3 часа до срока); квадратными скобками обозначены град или гололедные отложения с указанием их диаметра в мм.
Облачность - указаны через наклонную черту общая и нижняя облачность в баллах и высота нижней границы облаков в метрах; квадратными скобками обозначены формы облаков: Ci - перистые, Cs - перисто-слоистые, Cc - перисто-кучевые, Ac - высококучевые, As - высокослоистые, Sc - слоисто-кучевые, Ns - слоисто-дождевые, Cu - кучевые, Cb - кучево-дождевые. Подробнее классификацию облаков см. в Атласе облаков (PDF).
T - Температура воздуха - температура, измеренная на высоте 2 м над землей.
Td - Температура точки росы - температура, при понижении до которой содержащийся в воздухе водяной пар достигнет насыщения.
f - Относительная влажность воздуха - влажноcть воздуха, измеренная на высоте 2 м над землей.
Te - Эффективная температура - температура, которую ощущает одетый по сезону человек в тени. Характеристика душности погоды. При расчете учитывается влияние влажности воздуха и скорости ветра на теплоощущения человека.
Tes - Эффективная температура на солнце - температура, которую ощущает человек, с поправкой на солнечный нагрев. Характеристика знойности погоды. Зависит от высоты солнца над горизонтом, облачности и скорости ветра. Ночью, в пасмурную погоду, а также при ветре 12 м/с и более поправка равна нулю.
P - Атмосферное давление - приведенное к уровню моря атмосферное давление.
Po - Атмосферное давление - измеренное на уровне метеостанции атмосферное давление.
Tmin - Минимальная температура - минимум температуры воздуха на высоте 2 м над землей.
Tmax - Максимальная температура - максимум температуры воздуха на высоте 2 м над землей.
R - Количество осадков - Количество выпавших осадков за период времени, мм. При наведении курсора мыши на число - период времени, за который выпало указанное количество осадков.
R24 - Количество осадков - Количество выпавших осадков за 24 часа, мм.
S - Снежный покров - Высота снежного покрова, см. При наведении курсора мыши на число - состояние снежного покрова и степень покрытия местности в баллах.